Location: Lawrenceville
(33.9572°N, 83.9896°W)
Time: 18:23:10
(UTC+00:00)

Hubble Space Telescope - Visible Passes

Search period start: 21 September 2023 00:00
Search period end: 01 October 2023 00:00
Orbit: 522 x 525 km, 28.5° (Epoch: 20 September)

Date Brightness Start Highest point End Pass type
(mag) Time Alt. Az. Time Alt. Az. Time Alt. Az.
21 Sep 2.1 09:29:04 29° SSE 09:29:04 29° SSE 09:31:55 10° ESE visible
22 Sep 2.7 09:14:35 23° SE 09:14:35 23° SE 09:16:33 10° ESE visible
22 Sep 1.7 10:49:42 10° WSW 10:53:25 36° S 10:57:08 10° ESE visible
23 Sep 3.3 09:00:06 16° ESE 09:00:06 16° ESE 09:01:08 10° ESE visible
23 Sep 1.7 10:35:08 15° WSW 10:37:58 34° S 10:41:39 10° ESE visible
24 Sep 3.8 08:45:38 10° ESE 08:45:38 10° ESE 08:45:43 10° ESE visible
24 Sep 1.7 10:20:41 22° SW 10:22:30 32° S 10:26:08 10° SE visible
25 Sep 1.8 10:06:14 28° SSW 10:07:01 30° S 10:10:35 10° SE visible
26 Sep 2.0 09:51:51 27° S 09:51:51 27° S 09:54:59 10° SE visible
27 Sep 2.6 09:37:29 20° SSE 09:37:29 20° SSE 09:39:22 10° SE visible
28 Sep 3.3 09:23:11 12° SSE 09:23:11 12° SSE 09:23:40 10° SE visible
